loading
|
DECAYED

ELECTRON R/B, 59589 (Decayed)

Orbit data source: Space-Track

ELECTRON R/B, 59589 was space debris in LEO originally from a launch on Tue, 23 Apr 2024 UTC launched from the Rocket Lab Launch Complex (RLLC). Debris objects in space refer to the collection of defunct objects orbiting the Earth. Examples of debris include non-operational satellites, rocket bodies, and fragments generated from explosions, collisions, or faulty payload assembly.

Next visibility unknown
No 3D visualization available: RSO Decayed
ELECTRON R/B details
Identifier
59589, 2024-077C
Orbit
Decayed
Last TLE update5 months ago
Origin
Flag of USRocket Lab (US)
ManufacturerRocket Lab
MissionDecayed spacecraft
Bus & MotorELECTRON ST2, Unknown motor
Mass250 kg wet, ~250 kg dry
Launch date (UTC)
2024-04-23 (5 months ago)
Launch vehicleUnknown
Launch site
Rocket Lab Launch Complex (RLLC)
Object type
Payload
Rocket body
Debris
Shape & HBRUnknown
Radar Cross SectionMedium (>0.1 m² and <1 m²)

Expand to show TLE details & history

TLE from 5 months ago
0 ELECTRON R/B
1 59589U 24077C   24120.11832866  .25703934  18435-5  42399-3 0  9999
2 59589  97.3717 201.4229 0049442 202.9026 244.9909 16.41921092   828
Epoch: 2024-04-29T02:50Z
Definitive object data (Epoch: 2024-04-29T02:50:23.596Z)
Latitude82.22266°
Longitude-129.09537°
Altitude188.031 km
Speed7.792 km/s
True Right ascension08h 44m 15s
True Declination82° 10' 21"
Sunlit
Object was in daylight at TLE epoch
Predictive object data (real-time)
LatitudeUnknown
LongitudeUnknown
AltitudeUnknown
SpeedUnknown
Apparent Right ascensionUnknown
Apparent DeclinationUnknown
SunlitUnknown
Predictive observer data (real-time)
Local Sidereal Time15:17:04
AzimuthUnknown
ElevationUnknown
Doppler factorUnknown
Orbital elements
Apogee189.814 km
Perigee125.187 km
Semi-major axis6,535.638 km
Eccentricity0.0049442
Inclination97.3717°
RAAN201.4229°
Arg. of periapsis202.9026°
True anomaly244.4788°
Mean anomaly244.9909°
Eccentric anomaly244.73472°
Mean motion4.10782 °/min
BSTAR0.00042399
Period87.64 mins
No data available
No data available
Other satellites on launch #77 in the year 2024 (2024-04-23 UTC)

ELECTRON R/B Visibility forecast

Observer location: 39.9160978°, -105.1181434

This satellite is decayed
Span
Click to sort rows by Start time (UTC) header in descending order
Start Az.
Max El. time (UTC)
Max El. Az.
Max El.
End time (UTC)
End Az.